TimeHST,TemperatureF,Dew PointF,Humidity,Sea Level PressureIn,VisibilityMPH,Wind Direction,Wind SpeedMPH,Gust SpeedMPH,PrecipitationIn,Events,Conditions,WindDirDegrees,DateUTC
12:53 AM,70.0,63.0,78,30.10,10.0,Calm,Calm,-,N/A,,Mostly Cloudy,0,2012-11-16 10:53:00
1:53 AM,70.0,63.0,78,30.09,10.0,ESE,8.1,-,N/A,,Overcast,110,2012-11-16 11:53:00
2:53 AM,70.0,63.0,78,30.08,10.0,West,3.5,-,0.00,,Mostly Cloudy,260,2012-11-16 12:53:00
3:53 AM,66.0,63.0,90,30.07,10.0,SW,4.6,-,0.01,,Overcast,220,2012-11-16 13:53:00
4:53 AM,66.9,63.0,87,30.07,10.0,SW,5.8,-,0.00,,Mostly Cloudy,230,2012-11-16 14:53:00
5:53 AM,66.0,63.0,90,30.09,2.5,Variable,3.5,-,0.04,Rain,Heavy Rain,0,2012-11-16 15:53:00
6:01 AM,66.2,64.4,94,30.10,6.0,Calm,Calm,-,0.02,Rain,Heavy Rain,0,2012-11-16 16:01:00
6:53 AM,66.9,64.0,90,30.10,10.0,WSW,6.9,-,0.06,,Mostly Cloudy,250,2012-11-16 16:53:00
7:53 AM,69.1,64.0,84,30.12,10.0,West,5.8,-,0.02,Rain,Light Rain,260,2012-11-16 17:53:00
8:53 AM,70.0,64.9,84,30.13,10.0,SW,5.8,-,0.00,,Mostly Cloudy,230,2012-11-16 18:53:00
9:53 AM,73.0,64.9,76,30.14,10.0,WSW,6.9,-,N/A,,Mostly Cloudy,250,2012-11-16 19:53:00
10:53 AM,73.9,64.0,71,30.12,10.0,North,9.2,-,N/A,,Mostly Cloudy,360,2012-11-16 20:53:00
11:53 AM,75.0,64.0,69,30.10,10.0,North,6.9,-,N/A,,Mostly Cloudy,350,2012-11-16 21:53:00
12:53 PM,70.0,66.9,90,30.08,6.0,Variable,4.6,-,0.03,Rain,Light Rain,0,2012-11-16 22:53:00
1:03 PM,69.8,66.2,88,30.08,7.0,SW,3.5,-,0.03,Rain,Light Rain,230,2012-11-16 23:03:00
1:53 PM,73.0,66.9,81,30.05,10.0,West,5.8,-,0.03,,Overcast,270,2012-11-16 23:53:00
2:53 PM,73.9,64.9,73,30.05,10.0,NE,3.5,-,N/A,,Mostly Cloudy,50,2012-11-17 00:53:00
3:53 PM,75.0,64.0,69,30.05,10.0,North,3.5,-,N/A,,Overcast,10,2012-11-17 01:53:00
4:53 PM,71.1,64.0,78,30.06,10.0,WNW,6.9,-,N/A,,Scattered Clouds,290,2012-11-17 02:53:00
5:53 PM,70.0,64.0,81,30.07,10.0,Calm,Calm,-,N/A,,Mostly Cloudy,0,2012-11-17 03:53:00
6:53 PM,70.0,64.9,84,30.09,10.0,West,5.8,-,0.01,,Mostly Cloudy,270,2012-11-17 04:53:00
7:40 PM,69.8,64.4,83,30.11,10.0,NNW,9.2,-,0.00,Rain,Light Rain,340,2012-11-17 05:40:00
7:53 PM,69.1,64.9,87,30.11,7.0,WNW,9.2,-,0.00,Rain,Light Rain,300,2012-11-17 05:53:00
8:23 PM,68.0,64.4,88,30.11,10.0,WSW,6.9,-,0.01,,Overcast,240,2012-11-17 06:23:00
8:53 PM,68.0,64.0,87,30.11,9.0,West,5.8,-,0.01,Rain,Light Rain,260,2012-11-17 06:53:00
9:53 PM,68.0,64.0,87,30.11,10.0,SW,5.8,-,0.01,,Overcast,220,2012-11-17 07:53:00
10:53 PM,68.0,64.0,87,30.11,10.0,WSW,5.8,-,0.01,,Overcast,240,2012-11-17 08:53:00
11:53 PM,68.0,64.0,87,30.09,10.0,WSW,5.8,-,0.00,,Overcast,240,2012-11-17 09:53:00